Location: Houston
(29.7630°N, 95.3630°W)
Time: 01:32:11
(UTC-05:00)

Saudisat 1A - Visible Passes

Search period start: 26 July 2016 00:00
Search period end: 05 August 2016 00:00
Orbit: 563 x 630 km, 64.6° (Epoch: 25 July)

Date Brightness Start Highest point End Pass type
(mag) Time Alt. Az. Time Alt. Az. Time Alt. Az.
30 Jul 11.2 00:24:04 11° N 00:24:04 11° N 00:24:22 10° N visible
31 Jul 11.3 00:33:05 10° NNW 00:33:05 10° NNW 00:33:05 10° NNW visible
31 Jul 10.5 23:05:14 16° NNE 23:05:14 16° NNE 23:06:13 10° NNE visible
01 Aug 10.0 23:13:29 27° NNW 23:13:29 27° NNW 23:16:06 10° N visible
02 Aug 9.0 21:44:07 29° ENE 21:44:07 29° ENE 21:46:56 10° NE visible
02 Aug 10.6 23:20:30 15° W 23:22:21 19° NW 23:25:33 10° N visible
03 Aug 7.9 21:48:31 10° SSW 21:52:56 71° ESE 21:57:27 10° NNE visible
03 Aug 11.3 23:32:14 10° WNW 23:32:51 10° NW 23:33:28 10° NW visible
04 Aug 8.7 21:58:46 10° SW 22:03:08 57° WNW 22:07:36 10° NNE visible
